Knox Cnty, Mount Vernon, OH, OH

12:27 PM EST on November 13, 2019 (GMT -0500)
Knox Cnty, Mount Vernon, OH

Weather History for K4I3 - October, 2019

Change the Weather History Date:

Sunday, October 20, 2019

  Actual Average (WUND) Record (WUND)
Temperature  
Mean Temperature 60 °F -  
Max Temperature 75 °F - - (-1)
Min Temperature 44 °F - - (-1)
Degree Days  
Heating Degree Days 6    
Growing Degree Days 10 (Base 50)    
Moisture  
Dew Point 46 °F    
Average Humidity 66    
Maximum Humidity 87    
Minimum Humidity 41    
Precipitation  
Precipitation 0.00 in - - ()
Sea Level Pressure  
Sea Level Pressure 29.90 in    
Wind  
Wind Speed 1 mph ()    
Max Wind Speed 7 mph    
Max Gust Speed -    
Visibility 10.0 miles    
Events      
Averages and records for this station are not official NWS values.
T = Trace of Precipitation, MM = Missing Value Source: Averaged Metar Reports

Daily Weather History Graph

Daily Weather History Graph

Search for Another Location

Airport or City:

Astronomy

Oct. 20, 2019 Rise Set
Actual Time 7:46 AM EDT 6:43 PM EDT
Civil Twilight 7:18 AM EDT 7:10 PM EDT
Nautical Twilight 6:46 AM EDT 7:42 PM EDT
Astronomical Twilight 6:15 AM EDT 8:13 PM EDT
Moon 11:50 PM EDT (10/20) 2:13 PM EDT (10/20)
Length of Visible Light 11h 52m
Length of Day
10h 57m
Waning Gibbous, 59% of the Moon is Illuminated
Oct 20
Waning Gibbous
Oct 21
Last Quarter
Oct 27
New
Nov 4
First Quarter
Nov 12
Full

Hourly Weather History & Observations

Time (EDT) Temp. Windchill Dew Point Humidity Pressure Visibility Wind Dir Wind Speed Gust Speed Precip Events Conditions
12:18 AM 50.0 °F - 41.0 °F 71% 29.87 in 10.0 mi Calm Calm - N/A   Clear
12:36 AM 50.0 °F - 41.0 °F 71% 29.86 in 10.0 mi Calm Calm - N/A   Clear
12:56 AM 48.2 °F - 41.0 °F 76% 29.87 in 10.0 mi Calm Calm - N/A   Clear
1:15 AM 48.2 °F - 41.0 °F 76% 29.87 in 10.0 mi Calm Calm - N/A   Clear
1:35 AM 48.2 °F - 41.0 °F 76% 29.87 in 10.0 mi Calm Calm - N/A   Clear
1:58 AM 44.6 °F 42.2 °F 41.0 °F 87% 29.85 in 10.0 mi NNE 4.6 mph - N/A   Clear
2:16 AM 44.6 °F - 41.0 °F 87% 29.86 in 10.0 mi Calm Calm - N/A   Clear
2:35 AM 44.6 °F 43.1 °F 41.0 °F 87% 29.85 in 10.0 mi NNE 3.5 mph - N/A   Clear
2:36 AM 44.6 °F 43.1 °F 41.0 °F 87% 29.86 in 10.0 mi NNE 3.5 mph - N/A   Clear
2:55 AM 44.6 °F - 41.0 °F 87% 29.85 in 10.0 mi Calm Calm - N/A   Clear
3:15 AM 46.4 °F 45.2 °F 41.0 °F 81% 29.85 in 10.0 mi NE 3.5 mph - N/A   Clear
3:38 AM 44.6 °F - 41.0 °F 87% 29.85 in 10.0 mi Calm Calm - N/A   Clear
3:57 AM 46.4 °F 45.2 °F 41.0 °F 81% 29.85 in 10.0 mi ENE 3.5 mph - N/A   Clear
4:15 AM 46.4 °F 45.2 °F 41.0 °F 81% 29.84 in 10.0 mi ENE 3.5 mph - N/A   Clear
4:35 AM 46.4 °F - 41.0 °F 81% 29.84 in 10.0 mi Calm Calm - N/A   Clear
4:55 AM 46.4 °F - 41.0 °F 81% 29.85 in 10.0 mi Calm Calm - N/A   Clear
5:18 AM 48.2 °F - 41.0 °F 76% 29.85 in 10.0 mi Calm Calm - N/A   Clear
5:36 AM 46.4 °F - 41.0 °F 81% 29.85 in 10.0 mi Calm Calm - N/A   Clear
5:55 AM 46.4 °F - 41.0 °F 81% 29.86 in 10.0 mi Calm Calm - N/A   Clear
6:15 AM 46.4 °F - 41.0 °F 81% 29.86 in 10.0 mi Calm Calm - N/A   Clear
6:35 AM 46.4 °F - 41.0 °F 81% 29.86 in 10.0 mi Calm Calm - N/A   Clear
6:59 AM 46.4 °F - 41.0 °F 81% 29.87 in 10.0 mi Calm Calm - N/A   Clear
7:17 AM 46.4 °F - 41.0 °F 81% 29.87 in 10.0 mi Calm Calm - N/A   Clear
7:35 AM 44.6 °F - 41.0 °F 87% 29.87 in 10.0 mi Calm Calm - N/A   Clear
7:55 AM 44.6 °F - 41.0 °F 87% 29.87 in 10.0 mi Calm Calm - N/A   Clear
8:15 AM 46.4 °F - 41.0 °F 81% 29.88 in 10.0 mi Calm Calm - N/A   Clear
8:39 AM 48.2 °F - 42.8 °F 82% 29.88 in 10.0 mi Calm Calm - N/A   Clear
8:57 AM 48.2 °F - 42.8 °F 82% 29.89 in 10.0 mi Calm Calm - N/A   Clear
9:15 AM 50.0 °F - 42.8 °F 76% 29.90 in 10.0 mi Calm Calm - N/A   Clear
9:35 AM 51.8 °F - 44.6 °F 76% 29.90 in 10.0 mi Calm Calm - N/A   Clear
9:55 AM 53.6 °F - 44.6 °F 72% 29.90 in 10.0 mi Calm Calm - N/A   Clear
9:56 AM 53.6 °F - 44.6 °F 72% 29.90 in 10.0 mi South 3.5 mph - N/A   Clear
10:19 AM 57.2 °F - 44.6 °F 63% 29.90 in 10.0 mi WSW 3.5 mph - N/A   Clear
10:37 AM 59.0 °F - 46.4 °F 63% 29.91 in 10.0 mi West 3.5 mph - N/A   Clear
11:15 AM 62.6 °F - 48.2 °F 59% 29.91 in 10.0 mi Calm Calm - N/A   Clear
11:35 AM 66.2 °F - 48.2 °F 52% 29.91 in 10.0 mi Calm Calm - N/A   Clear
11:59 AM 68.0 °F - 48.2 °F 49% 29.91 in 10.0 mi Calm Calm - N/A   Clear
12:17 PM 69.8 °F - 48.2 °F 46% 29.91 in 10.0 mi Calm Calm - N/A   Clear
12:35 PM 69.8 °F - 48.2 °F 46% 29.90 in 10.0 mi SE 4.6 mph - N/A   Clear
12:55 PM 69.8 °F - 48.2 °F 46% 29.91 in 10.0 mi Calm Calm - N/A   Clear
1:15 PM 71.6 °F - 50.0 °F 46% 29.91 in 10.0 mi South 5.8 mph - N/A   Scattered Clouds
1:39 PM 73.4 °F - 50.0 °F 44% 29.91 in 10.0 mi SSW 6.9 mph - N/A   Mostly Cloudy
1:57 PM 71.6 °F - 50.0 °F 46% 29.91 in 10.0 mi West 5.8 mph - N/A   Mostly Cloudy
2:15 PM 73.4 °F - 50.0 °F 44% 29.90 in 10.0 mi SW 5.8 mph - N/A   Scattered Clouds
2:35 PM 71.6 °F - 50.0 °F 46% 29.90 in 10.0 mi West 3.5 mph - N/A   Scattered Clouds
2:55 PM 75.2 °F - 50.0 °F 41% 29.89 in 10.0 mi WSW 5.8 mph - N/A   Scattered Clouds
3:19 PM 71.6 °F - 48.2 °F 43% 29.90 in 10.0 mi SW 3.5 mph - N/A   Overcast
3:37 PM 71.6 °F - 48.2 °F 43% 29.90 in 10.0 mi West 5.8 mph - N/A   Scattered Clouds
3:56 PM 73.4 °F - 48.2 °F 41% 29.90 in 10.0 mi NW 3.5 mph - N/A   Mostly Cloudy
4:15 PM 69.8 °F - 50.0 °F 49% 29.91 in 10.0 mi WNW 5.8 mph - N/A   Scattered Clouds
4:35 PM 69.8 °F - 50.0 °F 49% 29.91 in 10.0 mi West 5.8 mph - N/A   Clear
4:55 PM 73.4 °F - 48.2 °F 41% 29.91 in 10.0 mi West 5.8 mph - N/A   Clear
5:18 PM 73.4 °F - 48.2 °F 41% 29.91 in 10.0 mi West 4.6 mph - N/A   Clear
5:36 PM 71.6 °F - 48.2 °F 43% 29.91 in 10.0 mi West 4.6 mph - N/A   Clear
5:56 PM 69.8 °F - 48.2 °F 46% 29.91 in 10.0 mi West 3.5 mph - N/A   Clear
6:15 PM 69.8 °F - 48.2 °F 46% 29.92 in 10.0 mi West 3.5 mph - N/A   Scattered Clouds
6:35 PM 66.2 °F - 48.2 °F 52% 29.92 in 10.0 mi Calm Calm - N/A   Scattered Clouds
6:58 PM 62.6 °F - 50.0 °F 63% 29.93 in 10.0 mi Calm Calm - N/A   Mostly Cloudy
7:16 PM 64.4 °F - 50.0 °F 59% 29.93 in 10.0 mi Calm Calm - N/A   Mostly Cloudy
7:35 PM 64.4 °F - 48.2 °F 56% 29.94 in 10.0 mi Calm Calm - N/A   Clear
7:55 PM 62.6 °F - 48.2 °F 59% 29.94 in 10.0 mi Calm Calm - N/A   Clear
8:15 PM 62.6 °F - 48.2 °F 59% 29.95 in 10.0 mi Calm Calm - N/A   Scattered Clouds
8:38 PM 62.6 °F - 48.2 °F 59% 29.96 in 10.0 mi Calm Calm - N/A   Scattered Clouds
8:56 PM 62.6 °F - 50.0 °F 63% 29.96 in 10.0 mi NE 4.6 mph - N/A   Mostly Cloudy
9:16 PM 60.8 °F - 50.0 °F 68% 29.97 in 10.0 mi North 4.6 mph - N/A   Mostly Cloudy
9:35 PM 59.0 °F - 48.2 °F 67% 29.97 in 10.0 mi Calm Calm - N/A   Scattered Clouds
9:55 PM 59.0 °F - 48.2 °F 67% 29.98 in 10.0 mi North 4.6 mph - N/A   Clear
10:18 PM 59.0 °F - 48.2 °F 67% 29.98 in 10.0 mi North 4.6 mph - N/A   Clear
10:36 PM 59.0 °F - 48.2 °F 67% 29.99 in 10.0 mi North 3.5 mph - N/A   Clear
10:55 PM 57.2 °F - 48.2 °F 72% 29.99 in 10.0 mi North 3.5 mph - N/A   Clear
11:15 PM 57.2 °F - 48.2 °F 72% 30.00 in 10.0 mi North 3.5 mph - N/A   Scattered Clouds
11:35 PM 57.2 °F - 48.2 °F 72% 29.99 in 10.0 mi NNE 3.5 mph - N/A   Scattered Clouds
11:58 PM 57.2 °F - 50.0 °F 77% 29.99 in 10.0 mi Calm Calm - N/A   Mostly Cloudy